QPF
0.00 0.00 0.00 0.00 0.00 0.00 0.00 0.00 0.00 0.00 0.00 0.00 0.00 0.00 0.00 0.00 0.00 0.00 0.00 0.00 0.00 0.00 0.00 0.00 0.00 0.00 0.00 0.00 0.00 0.00 0.00 0.00 0.00 0.00 0.00 0.00 0.00 0.00 0.00 0.00 0.00 0.00 0.00 0.00 0.00 0.00 0.00 0.00 0.00 0.00 0.00 0.00 0.00 0.00
0.00 0.00 0.00 0.00 0.00 0.00 0.00 0.00 0.00 0.00 0.00 0.00 0.00 0.00 0.00 0.00 0.00 0.00 0.00 0.00 0.00 0.00 0.00 0.00 0.00 0.00 0.00 0.00 0.00 0.00 0.00 0.00 0.00 0.00 0.00 0.00 0.00 0.00 0.00 0.00 0.00 0.00 0.00 0.00 0.00 0.00 0.00 0.00 0.00 0.00 0.00 0.00 0.00 0.00
0.00 0.00 0.00 0.00 0.00 0.00 0.00 0.00 0.00 0.00 0.00 0.00 0.00 0.00 0.00 0.00 0.00 0.00 0.00 0.00 0.00 0.00 0.00 0.00 0.00 0.00 0.00 0.00 0.00 0.00 0.00 0.00 0.00 0.00 0.00 0.00 0.00 0.00 0.00 0.00 0.00 0.00 0.00 0.00 0.00 0.00 0.00 0.00 0.00 0.00 0.00 0.00 0.00 0.00
0.00 0.00 0.00 0.00 0.00 0.00 0.00 0.00 0.00 0.00 0.00 0.00 0.00 0.00 0.00 0.00 0.00 0.00 0.00 0.00 0.00 0.00 0.00 0.00 0.00 0.00 0.00 0.00 0.00 0.00 0.00 0.00 0.00 0.00 0.00 0.00 0.00 0.00 0.00 0.00 0.00 0.00 0.00 0.00 0.00 0.00 0.00 0.00 0.00 0.00 0.00 0.00 0.00 0.00
0.00 0.00 0.00 0.00 0.00 0.00 0.00 0.00 0.00 0.00 0.00 0.00 0.00 0.00 0.00 0.00 0.00 0.00 0.00 0.00 0.00 0.00 0.00 0.00 0.00 0.00 0.00 0.00 0.00 0.00 0.00 0.00 0.00 0.00 0.00 0.00 0.00 0.00 0.00 0.00 0.00 0.00 0.00 0.00 0.00 0.00 0.00 0.00 0.00 0.00 0.00 0.00 0.00 0.00
0.00 0.00 0.00 0.00 0.00 0.00 0.00 0.00 0.00 0.00 0.00 0.00 0.00 0.00 0.00 0.00 0.00 0.00 0.00 0.00 0.00 0.00 0.00 0.00 0.00 0.00 0.00 0.00 0.00 0.00 0.00 0.00 0.00 0.00 0.00 0.00 0.00 0.00 0.00 0.00 0.00 0.00 0.00 0.00 0.00 0.00 0.00 0.00 0.00 0.00 0.00 0.00 0.00 0.00
0.00 0.00 0.00 0.00 0.00 0.00 0.00 0.00 0.00 0.00 0.00 0.00 0.00 0.00 0.00 0.00 0.00 0.00 0.00 0.00 0.00 0.00 0.00 0.00 0.00 0.00 0.00 0.00 0.00 0.00 0.00 0.00 0.00 0.00 0.00 0.00 0.00 0.00 0.00 0.00 0.00 0.00 0.00 0.00 0.00 0.00 0.00 0.00 0.00 0.00 0.00 0.00 0.00 0.00
0.00 0.00 0.00 0.00 0.00 0.00 0.00 0.00 0.00 0.00 0.00 0.00 0.00 0.00 0.00 0.00 0.00 0.00 0.00 0.00 0.00 0.00 0.00 0.00 0.00 0.00 0.00 0.00 0.00 0.00 0.00 0.00 0.00 0.00 0.00 0.00 0.00 0.00 0.00 0.00 0.00 0.00 0.00 0.00 0.00 0.00 0.00 0.00 0.00 0.00 0.00 0.00 0.00 0.00
0.00 0.00 0.00 0.00 0.00 0.00 0.00 0.00 0.00 0.00 0.00 0.00 0.00 0.00 0.00 0.00 0.00 0.00 0.00 0.00 0.00 0.00 0.00 0.00 0.00 0.00 0.00 0.00 0.00 0.00 0.00 0.00 0.00 0.00 0.00 0.00 0.00 0.00 0.00 0.00 0.00 0.00 0.00 0.00 0.00 0.00 0.00 0.00 0.00 0.00 0.00 0.00 0.00 0.00
0.00 0.00 0.00 0.00 0.00 0.00 0.00 0.00 0.00 0.00 0.00 0.00 0.00 0.00 0.00 0.00 0.00 0.00 0.00 0.00 0.00 0.00 0.00 0.00 0.00 0.00 0.00 0.00 0.00 0.00 0.00 0.00 0.00 0.00 0.00 0.00 0.00 0.00 0.00 0.00 0.00 0.00 0.00 0.00 0.00 0.00 0.00 0.00 0.00 0.00 0.00 0.00 0.00 0.00
0.00 0.00 0.00 0.00 0.00 0.00 0.00 0.00 0.00 0.00 0.00 0.00 0.00 0.00 0.00 0.00 0.00 0.00 0.00 0.00 0.00 0.00 0.00 0.00 0.00 0.00 0.00 0.00 0.00 0.00 0.00 0.00 0.00 0.00 0.00 0.00 0.00 0.00 0.00 0.00 0.00 0.00 0.00 0.00 0.00 0.00 0.00 0.00 0.00 0.00 0.00 0.00 0.00 0.00
0.00 0.00 0.00 0.00 0.00 0.00 0.00 0.00 0.00 0.00 0.00 0.00 0.00 0.00 0.00 0.00 0.00 0.00 0.00 0.00 0.00 0.00 0.00 0.00 0.00 0.00 0.00 0.00 0.00 0.00 0.00 0.00 0.00 0.00 0.00 0.00 0.00 0.00 0.00 0.00 0.00 0.00 0.00 0.00 0.00 0.00 0.00 0.00 0.00 0.00 0.00 0.00 0.00 0.00
0.00 0.00 0.00 0.00 0.00 0.00 0.00 0.00 0.00 0.00 0.00 0.00 0.00 0.00 0.00 0.00 0.00 0.00 0.00 0.00 0.00 0.00 0.00 0.00 0.00 0.00 0.00 0.00 0.00 0.00 0.00 0.00 0.00 0.00 0.00 0.00 0.00 0.00 0.00 0.00 0.00 0.00 0.00 0.00 0.00 0.00 0.00 0.00 0.00 0.00 0.00 0.00 0.00 0.00
0.00 0.00 0.00 0.00 0.00 0.00 0.00 0.00 0.00 0.00 0.00 0.00 0.00 0.00 0.00 0.00 0.00 0.00 0.00 0.00 0.00 0.00 0.00 0.00 0.00 0.00 0.00 0.00 0.00 0.00 0.00 0.00 0.00 0.00 0.00 0.00 0.00 0.00 0.00 0.00 0.00 0.00 0.00 0.00 0.00 0.00 0.00 0.00 0.00 0.00 0.00 0.00 0.00 0.00
0.00 0.00 0.00 0.00 0.00 0.00 0.00 0.00 0.00 0.00 0.00 0.00 0.00 0.00 0.00 0.00 0.00 0.00 0.00 0.00 0.00 0.00 0.00 0.00 0.00 0.00 0.00 0.00 0.00 0.00 0.00 0.00 0.00 0.00 0.00 0.00 0.00 0.00 0.00 0.00 0.00 0.00 0.00 0.00 0.00 0.00 0.00 0.00 0.00 0.00 0.00 0.00 0.00 0.00
0.00 0.00 0.00 0.00 0.00 0.00 0.00 0.00 0.00 0.00 0.00 0.00 0.00 0.00 0.00 0.00 0.00 0.00 0.01 0.01 0.01 0.01 0.01 0.03 0.02 0.01 0.00 0.00 0.00 0.00 0.00 0.00 0.00 0.00 0.00 0.00 0.00 0.00 0.00 0.00 0.00 0.00 0.00 0.00 0.00 0.00 0.00 0.00 0.00 0.00 0.00 0.00 0.00 0.00
0.00 0.00 0.00 0.00 0.00 0.00 0.00 0.00 0.00 0.00 0.00 0.00 0.00 0.00 0.00 0.00 0.00 0.00 0.01 0.02 0.01 0.02 0.03 0.04 0.03 0.01 0.01 0.00 0.00 0.00 0.00 0.00 0.00 0.00 0.00 0.00 0.00 0.00 0.00 0.00 0.00 0.00 0.00 0.00 0.00 0.00 0.00 0.00 0.00 0.00 0.00 0.00 0.00 0.00
0.00 0.00 0.00 0.00 0.00 0.00 0.00 0.00 0.00 0.00 0.00 0.00 0.00 0.00 0.00 0.00 0.00 0.00 0.00 0.00 0.00 0.01 0.02 0.01 0.01 0.01 0.01 0.00 0.00 0.00 0.00 0.00 0.00 0.00 0.00 0.00 0.00 0.00 0.00 0.00 0.00 0.00 0.00 0.00 0.00 0.00 0.00 0.00 0.00 0.00 0.00 0.00 0.00 0.00
0.00 0.00 0.00 0.00 0.00 0.00 0.00 0.00 0.00 0.00 0.00 0.00 0.00 0.00 0.00 0.00 0.00 0.00 0.00 0.00 0.00 0.01 0.01 0.01 0.01 0.00 0.00 0.00 0.00 0.00 0.00 0.00 0.00 0.00 0.00 0.00 0.00 0.00 0.00 0.00 0.00 0.00 0.00 0.00 0.00 0.00 0.00 0.00 0.00 0.00 0.00 0.00 0.00 0.00
0.00 0.00 0.00 0.00 0.00 0.00 0.00 0.00 0.00 0.00 0.00 0.00 0.00 0.00 0.00 0.00 0.00 0.00 0.00 0.00 0.00 0.00 0.00 0.00 0.00 0.00 0.00 0.00 0.00 0.00 0.00 0.00 0.00 0.00 0.00 0.00 0.00 0.00 0.00 0.00 0.00 0.00 0.00 0.00 0.00 0.00 0.00 0.00 0.00 0.00 0.00 0.00 0.00 0.00
0.00 0.00 0.00 0.00 0.00 0.00 0.00 0.00 0.00 0.00 0.00 0.00 0.00 0.00 0.00 0.00 0.00 0.00 0.00 0.00 0.00 0.00 0.00 0.00 0.00 0.00 0.00 0.00 0.00 0.00 0.00 0.00 0.00 0.00 0.00 0.00 0.00 0.00 0.00 0.00 0.00 0.00 0.00 0.00 0.00 0.00 0.00 0.00 0.00 0.00 0.00 0.00 0.00 0.00
0.00 0.00 0.00 0.00 0.00 0.00 0.00 0.00 0.00 0.00 0.00 0.00 0.00 0.00 0.00 0.00 0.00 0.00 0.00 0.00 0.00 0.00 0.00 0.00 0.00 0.00 0.00 0.00 0.00 0.00 0.00 0.00 0.00 0.00 0.00 0.00 0.00 0.00 0.00 0.00 0.00 0.00 0.00 0.00 0.00 0.00 0.00 0.00 0.00 0.00 0.00 0.00 0.00 0.04
0.00 0.00 0.00 0.00 0.01 0.00 0.00 0.00 0.00 0.00 0.00 0.00 0.00 0.00 0.00 0.00 0.00 0.00 0.00 0.00 0.00 0.00 0.00 0.00 0.00 0.00 0.00 0.00 0.00 0.00 0.00 0.00 0.00 0.00 0.00 0.00 0.00 0.00 0.00 0.00 0.00 0.00 0.00 0.00 0.00 0.00 0.00 0.00 0.00 0.00 0.00 0.00 0.00 0.01
0.00 0.00 0.00 0.01 0.00 0.00 0.00 0.00 0.00 0.00 0.00 0.00 0.01 0.00 0.00 0.00 0.01 0.03 0.04 0.01 0.00 0.00 0.00 0.00 0.00 0.00 0.00 0.00 0.00 0.00 0.00 0.00 0.00 0.00 0.00 0.00 0.00 0.00 0.00 0.00 0.00 0.00 0.00 0.00 0.00 0.00 0.00 0.00 0.00 0.00 0.00 0.00 0.00 0.01
0.00 0.00 0.00 0.00 0.00 0.01 0.00 0.00 0.00 0.00 0.01 0.00 0.00 0.00 0.00 0.02 0.04 0.03 0.03 0.01 0.00 0.00 0.00 0.00 0.00 0.00 0.00 0.00 0.00 0.00 0.00 0.00 0.00 0.00 0.00 0.00 0.00 0.00 0.00 0.00 0.00 0.00 0.00 0.00 0.00 0.00 0.00 0.00 0.00 0.00 0.00 0.00 0.00 0.00
0.00 0.00 0.00 0.00 0.00 0.00 0.00 0.01 0.00 0.00 0.00 0.01 0.01 0.01 0.00 0.02 0.02 0.00 0.01 0.01 0.00 0.00 0.01 0.00 0.00 0.00 0.00 0.00 0.00 0.00 0.00 0.00 0.00 0.00 0.00 0.00 0.00 0.00 0.00 0.00 0.00 0.00 0.00 0.00 0.00 0.00 0.00 0.00 0.00 0.00 0.00 0.00 0.00 0.00
0.00 0.00 0.00 0.00 0.00 0.00 0.00 0.00 0.00 0.00 0.00 0.00 0.00 0.00 0.01 0.02 0.01 0.01 0.01 0.01 0.00 0.00 0.00 0.00 0.00 0.00 0.00 0.00 0.00 0.00 0.00 0.00 0.00 0.00 0.00 0.00 0.00 0.00 0.00 0.00 0.00 0.00 0.00 0.00 0.00 0.00 0.00 0.00 0.00 0.00 0.00 0.00 0.00 0.00
0.00 0.00 0.00 0.00 0.00 0.00 0.00 0.00 0.00 0.00 0.00 0.00 0.00 0.00 0.02 0.03 0.02 0.00 0.00 0.00 0.00 0.01 0.01 0.01 0.01 0.01 0.00 0.00 0.00 0.00 0.00 0.00 0.00 0.00 0.00 0.00 0.00 0.00 0.00 0.00 0.00 0.00 0.00 0.00 0.00 0.00 0.00 0.00 0.00 0.00 0.00 0.00 0.00 0.00
0.00 0.00 0.00 0.00 0.00 0.00 0.00 0.00 0.00 0.00 0.00 0.00 0.01 0.01 0.01 0.02 0.01 0.00 0.00 0.00 0.01 0.01 0.04 0.04 0.03 0.00 0.00 0.00 0.00 0.00 0.00 0.00 0.00 0.00 0.00 0.00 0.00 0.00 0.00 0.00 0.00 0.00 0.00 0.00 0.00 0.00 0.00 0.00 0.00 0.00 0.00 0.00 0.00 0.00
0.00 0.00 0.00 0.00 0.00 0.00 0.00 0.00 0.00 0.00 0.00 0.00 0.00 0.00 0.00 0.00 0.00 0.00 0.00 0.00 0.01 0.02 0.02 0.02 0.02 0.00 0.00 0.00 0.00 0.00 0.00 0.00 0.00 0.00 0.00 0.00 0.00 0.00 0.00 0.00 0.00 0.00 0.00 0.00 0.00 0.00 0.00 0.00 0.00 0.00 0.00 0.00 0.00 0.00
0.00 0.00 0.00 0.00 0.00 0.00 0.00 0.00 0.00 0.00 0.00 0.00 0.00 0.00 0.00 0.00 0.00 0.00 0.00 0.00 0.00 0.01 0.01 0.00 0.00 0.00 0.00 0.00 0.00 0.00 0.00 0.00 0.00 0.00 0.00 0.00 0.00 0.00 0.00 0.00 0.00 0.00 0.00 0.00 0.00 0.00 0.00 0.00 0.00 0.00 0.00 0.00 0.00 0.00
0.00 0.00 0.00 0.00 0.00 0.00 0.00 0.00 0.00 0.00 0.00 0.00 0.00 0.00 0.00 0.00 0.00 0.00 0.00 0.00 0.01 0.00 0.00 0.00 0.00 0.00 0.00 0.00 0.00 0.00 0.00 0.00 0.00 0.00 0.00 0.00 0.00 0.00 0.00 0.00 0.00 0.00 0.00 0.00 0.00 0.00 0.00 0.00 0.00 0.00 0.00 0.00 0.00 0.00
0.00 0.00 0.00 0.00 0.00 0.00 0.00 0.00 0.00 0.00 0.00 0.01 0.00 0.00 0.00 0.00 0.00 0.00 0.01 0.00 0.00 0.00 0.00 0.00 0.00 0.00 0.00 0.00 0.00 0.00 0.00 0.00 0.00 0.00 0.00 0.00 0.00 0.00 0.00 0.00 0.00 0.00 0.00 0.00 0.00 0.00 0.00 0.00 0.00 0.00 0.00 0.00 0.00 0.00
MSLP
1021.33 1020.97 1020.70 1020.43 1020.28 1020.16 1019.85 1019.48 1019.28 1019.04 1018.79 1018.53 1018.12 1017.70 1017.35 1017.01 1016.67 1016.38 1015.80 1015.67 1015.20 1014.22 1012.61 1012.09 1011.50 1010.85 1010.53 1010.18 1009.70 1009.95 1009.91 1009.47 1009.62 1009.66 1009.93 1010.44 1010.55 1011.04 1011.12 1011.26 1011.36 1011.33 1011.63 1011.77 1012.20 1011.92 1011.55 1011.72 1011.85 1011.62 1011.27 1011.61 1011.87 1012.32
1021.35 1021.00 1020.66 1020.38 1020.29 1020.08 1019.72 1019.44 1019.16 1018.94 1018.61 1018.41 1018.08 1017.69 1017.36 1017.07 1016.78 1016.45 1015.90 1015.83 1015.78 1014.86 1013.25 1012.66 1011.70 1011.12 1010.90 1010.54 1010.32 1010.44 1010.31 1010.05 1010.12 1010.21 1010.78 1011.00 1011.14 1011.50 1011.28 1011.24 1011.79 1011.73 1011.72 1011.76 1012.06 1011.60 1012.01 1012.26 1012.13 1012.00 1011.90 1011.92 1012.39 1012.69
1021.34 1020.90 1020.58 1020.33 1020.08 1019.79 1019.46 1019.27 1019.04 1018.73 1018.43 1018.18 1017.91 1017.59 1017.30 1017.09 1016.89 1016.78 1016.56 1016.26 1015.69 1014.74 1013.08 1012.25 1010.90 1010.76 1010.94 1010.82 1010.55 1010.46 1010.47 1010.62 1010.68 1010.98 1010.87 1011.10 1011.15 1011.32 1011.18 1011.18 1011.33 1011.75 1012.12 1011.97 1012.34 1012.08 1012.23 1012.43 1012.59 1012.51 1012.51 1012.46 1012.80 1013.03
1021.31 1020.95 1020.56 1020.25 1019.98 1019.65 1019.44 1019.20 1018.82 1018.54 1018.27 1017.99 1017.76 1017.48 1017.23 1017.07 1016.94 1016.76 1016.62 1016.43 1016.11 1015.32 1013.78 1011.37 1010.72 1010.57 1010.63 1010.56 1010.49 1010.45 1010.56 1010.98 1011.10 1011.23 1011.04 1010.98 1011.08 1011.45 1011.11 1011.08 1011.07 1011.41 1012.02 1011.95 1012.00 1012.29 1012.63 1012.49 1012.52 1012.52 1012.68 1012.87 1013.08 1013.28
1021.36 1020.98 1020.64 1020.24 1019.87 1019.59 1019.29 1018.91 1018.62 1018.31 1018.11 1017.90 1017.67 1017.38 1017.14 1016.96 1016.78 1016.50 1016.35 1016.19 1016.14 1015.85 1014.20 1011.98 1011.00 1010.57 1010.37 1010.34 1010.40 1010.60 1010.72 1010.90 1011.00 1011.22 1011.04 1010.97 1011.35 1011.53 1011.73 1011.38 1010.73 1011.04 1010.98 1011.11 1010.85 1011.09 1011.30 1011.46 1011.65 1012.38 1012.65 1012.81 1013.09 1013.29
1021.29 1020.92 1020.55 1020.23 1019.86 1019.47 1019.08 1018.76 1018.42 1018.14 1017.91 1017.77 1017.54 1017.24 1016.99 1016.84 1016.59 1016.16 1015.99 1016.11 1015.91 1015.82 1014.76 1012.77 1011.47 1010.73 1010.38 1010.27 1010.44 1010.75 1010.99 1011.19 1011.12 1010.84 1011.03 1011.28 1011.47 1011.46 1011.06 1010.71 1010.38 1010.52 1010.65 1010.68 1010.91 1011.18 1011.37 1011.77 1011.92 1012.03 1012.50 1012.83 1013.09 1013.23
1021.20 1020.74 1020.39 1020.00 1019.63 1019.31 1018.97 1018.62 1018.24 1017.91 1017.69 1017.46 1017.25 1017.00 1016.77 1016.67 1016.60 1016.21 1016.06 1016.00 1016.11 1015.82 1014.76 1013.05 1011.40 1010.85 1010.69 1010.50 1010.76 1011.02 1011.29 1011.28 1011.17 1011.09 1011.18 1011.14 1011.57 1011.40 1010.95 1010.29 1010.13 1010.26 1010.52 1010.99 1011.41 1011.63 1011.85 1011.88 1011.83 1012.24 1012.58 1012.84 1013.14 1013.22
1021.01 1020.59 1020.21 1019.79 1019.39 1019.06 1018.69 1018.30 1017.92 1017.58 1017.32 1017.07 1016.77 1016.54 1016.41 1016.32 1016.37 1015.88 1015.15 1015.27 1015.95 1015.70 1014.92 1013.51 1011.67 1010.99 1010.66 1010.27 1010.53 1011.20 1010.94 1011.13 1011.31 1011.23 1011.55 1011.24 1011.82 1011.57 1010.69 1010.14 1010.03 1010.45 1010.74 1011.11 1011.39 1011.66 1011.66 1012.03 1012.22 1012.47 1012.75 1012.92 1013.01 1012.96
1020.88 1020.42 1020.03 1019.61 1019.22 1018.80 1018.41 1018.03 1017.61 1017.21 1016.87 1016.55 1016.26 1015.96 1015.96 1015.99 1015.61 1015.34 1015.45 1015.56 1015.49 1015.48 1014.41 1013.59 1012.20 1010.92 1010.74 1010.65 1010.71 1011.08 1010.98 1010.89 1011.62 1011.09 1011.34 1011.46 1011.39 1010.77 1010.03 1010.01 1010.13 1010.55 1010.74 1010.84 1011.42 1011.76 1011.95 1012.13 1012.32 1012.57 1012.70 1012.79 1012.78 1012.52
1020.80 1020.23 1019.86 1019.46 1019.00 1018.56 1018.12 1017.65 1017.22 1016.79 1016.36 1016.08 1015.91 1015.70 1015.41 1015.44 1015.35 1015.32 1015.53 1015.26 1015.03 1014.70 1014.42 1013.15 1012.57 1011.34 1011.01 1010.76 1010.66 1010.79 1010.94 1010.85 1010.95 1011.27 1011.51 1011.25 1010.37 1010.02 1010.24 1010.40 1010.64 1010.81 1010.99 1011.18 1011.40 1011.70 1011.89 1011.98 1012.15 1012.32 1012.43 1012.49 1012.45 1012.25
1020.57 1020.13 1019.64 1019.16 1018.64 1018.12 1017.68 1017.27 1016.97 1016.57 1015.79 1015.93 1015.74 1015.65 1015.53 1015.31 1015.11 1014.93 1014.74 1014.55 1014.34 1013.81 1013.36 1012.54 1012.19 1011.41 1011.08 1010.60 1010.32 1010.66 1010.46 1010.68 1010.58 1011.02 1011.01 1010.68 1010.07 1010.04 1010.41 1010.63 1010.85 1011.03 1011.21 1011.36 1011.54 1011.74 1011.94 1012.20 1012.31 1012.25 1012.15 1012.18 1012.11 1011.92
1020.34 1019.83 1019.36 1018.90 1018.38 1017.81 1017.04 1016.74 1016.64 1016.58 1016.44 1016.56 1016.50 1016.16 1015.71 1015.06 1014.72 1014.41 1013.99 1013.99 1013.50 1012.56 1012.29 1011.94 1011.62 1011.56 1011.12 1010.97 1010.36 1010.77 1010.28 1010.64 1010.30 1010.82 1010.70 1010.12 1009.93 1010.32 1010.62 1010.84 1011.11 1011.35 1011.50 1011.63 1011.86 1012.01 1012.16 1012.25 1012.27 1012.19 1012.04 1011.82 1011.62 1011.38
1020.17 1019.62 1019.14 1018.73 1018.31 1017.73 1017.06 1016.51 1016.40 1016.43 1016.37 1016.26 1016.22 1015.56 1014.94 1014.77 1014.25 1013.64 1012.89 1012.54 1012.16 1011.68 1011.44 1011.45 1011.31 1011.13 1011.35 1011.03 1010.57 1010.36 1010.16 1010.38 1010.60 1010.38 1010.01 1009.75 1010.04 1010.40 1010.79 1011.03 1011.26 1011.51 1011.71 1011.87 1011.98 1012.14 1012.21 1012.13 1012.06 1011.92 1011.59 1011.35 1011.11 1010.83
1019.90 1019.39 1018.92 1018.54 1018.25 1017.68 1017.13 1016.72 1016.56 1016.40 1016.33 1015.91 1015.47 1015.33 1014.73 1013.84 1013.17 1012.37 1011.96 1011.50 1011.16 1011.04 1011.02 1011.02 1010.95 1010.88 1010.77 1010.56 1010.36 1010.16 1010.56 1010.34 1010.14 1009.96 1009.62 1009.60 1009.83 1010.24 1010.74 1011.09 1011.30 1011.42 1011.64 1011.79 1011.91 1012.00 1011.99 1011.88 1011.66 1011.46 1011.18 1010.80 1010.53 1010.12
1019.57 1019.05 1018.62 1018.44 1018.07 1017.57 1017.16 1016.76 1016.56 1016.37 1016.13 1015.69 1015.35 1014.65 1013.84 1012.98 1012.52 1012.04 1011.76 1011.58 1011.24 1011.10 1010.93 1010.67 1010.63 1010.70 1010.49 1010.38 1010.29 1010.18 1010.27 1009.90 1009.72 1009.44 1009.41 1009.57 1010.06 1010.39 1010.77 1011.08 1011.27 1011.42 1011.56 1011.66 1011.79 1011.87 1011.82 1011.66 1011.38 1010.94 1010.59 1010.22 1010.05 1009.58
1019.15 1018.57 1018.61 1018.36 1017.92 1017.40 1016.93 1016.51 1016.45 1016.38 1015.97 1015.67 1015.23 1014.40 1013.53 1013.11 1012.27 1011.97 1011.83 1011.64 1011.55 1011.23 1010.92 1010.55 1010.36 1010.47 1010.62 1010.50 1010.04 1009.64 1009.59 1009.40 1009.29 1009.40 1009.54 1009.92 1010.22 1010.44 1010.72 1011.01 1011.21 1011.45 1011.55 1011.62 1011.71 1011.67 1011.52 1011.22 1010.87 1010.49 1010.06 1009.65 1009.26 1008.78
1018.87 1018.73 1018.50 1018.08 1017.76 1017.22 1016.69 1016.54 1016.27 1016.05 1015.73 1015.27 1014.60 1014.21 1013.90 1013.38 1012.85 1012.43 1012.15 1011.85 1011.68 1011.52 1010.85 1010.45 1010.27 1010.48 1010.69 1010.42 1009.97 1009.70 1009.40 1009.24 1009.32 1009.52 1009.75 1010.01 1010.18 1010.44 1010.71 1010.98 1011.23 1011.31 1011.42 1011.51 1011.53 1011.39 1011.15 1010.79 1010.40 1010.04 1009.59 1009.12 1008.77 1008.27
1019.32 1018.80 1018.37 1017.99 1017.68 1017.26 1016.73 1016.34 1016.08 1015.60 1015.19 1014.69 1014.52 1014.04 1013.77 1013.29 1012.81 1012.38 1012.10 1011.99 1011.84 1011.54 1011.20 1010.77 1010.65 1010.50 1010.27 1009.99 1009.66 1009.55 1009.50 1009.63 1009.76 1009.86 1009.99 1010.20 1010.36 1010.57 1010.81 1010.89 1011.01 1011.25 1011.38 1011.37 1011.21 1010.94 1010.67 1010.17 1009.74 1009.31 1009.05 1008.77 1008.32 1007.54
1018.79 1018.38 1017.97 1017.66 1017.60 1017.56 1016.94 1016.35 1016.17 1015.52 1014.82 1014.63 1014.27 1014.09 1013.70 1013.03 1012.55 1012.20 1011.99 1011.81 1011.84 1011.73 1011.40 1010.89 1010.35 1010.10 1009.87 1009.66 1009.47 1009.41 1009.61 1009.71 1009.69 1009.81 1010.03 1010.27 1010.41 1010.51 1010.67 1010.88 1011.02 1011.08 1011.10 1011.02 1010.78 1010.34 1009.99 1009.66 1009.31 1008.92 1008.65 1008.42 1007.95 1007.34
1018.24 1017.86 1017.66 1017.31 1017.46 1017.35 1016.82 1016.27 1016.13 1015.60 1014.87 1014.50 1014.24 1013.69 1013.19 1012.56 1012.18 1011.93 1011.74 1011.56 1011.45 1011.38 1011.04 1010.37 1009.55 1009.12 1009.07 1009.13 1009.39 1009.48 1009.74 1009.67 1009.82 1009.98 1009.96 1009.92 1010.10 1010.32 1010.51 1010.68 1010.71 1010.87 1010.75 1010.56 1010.24 1009.97 1009.55 1009.06 1008.55 1008.34 1008.25 1008.06 1007.64 1007.03
1017.99 1017.72 1017.47 1017.44 1017.39 1017.36 1017.05 1016.26 1015.70 1015.22 1014.78 1014.39 1013.70 1013.41 1012.48 1012.19 1011.81 1011.47 1011.22 1011.18 1011.15 1010.44 1009.84 1009.38 1008.84 1008.63 1008.82 1009.14 1009.30 1009.45 1009.59 1009.81 1009.83 1009.77 1009.68 1009.74 1010.06 1010.18 1010.28 1010.50 1010.69 1010.63 1010.42 1010.20 1009.86 1009.53 1009.34 1008.92 1008.62 1008.30 1008.06 1007.62 1007.14 1006.65
1018.16 1017.90 1017.62 1017.22 1017.02 1016.88 1016.69 1016.18 1015.86 1015.43 1015.07 1013.96 1013.49 1012.73 1011.99 1011.39 1010.98 1010.78 1010.85 1010.79 1010.11 1009.28 1009.08 1008.74 1008.52 1008.60 1008.69 1008.81 1009.05 1009.26 1009.31 1009.51 1009.73 1009.81 1009.89 1009.93 1009.93 1009.93 1010.04 1010.36 1010.44 1010.28 1010.14 1010.00 1009.84 1009.63 1009.30 1008.93 1008.54 1008.33 1007.88 1007.28 1006.87 1006.35
1018.15 1018.02 1017.57 1017.12 1016.76 1016.44 1016.20 1015.88 1015.54 1014.79 1014.23 1013.27 1012.63 1011.88 1011.28 1010.76 1010.51 1010.58 1010.09 1009.31 1008.78 1008.59 1008.46 1008.25 1007.97 1008.12 1008.18 1008.29 1008.65 1008.90 1009.10 1009.28 1009.33 1009.43 1009.75 1009.73 1009.92 1010.11 1010.20 1010.26 1010.28 1010.18 1009.92 1009.72 1009.79 1009.54 1009.05 1008.70 1008.44 1008.06 1007.60 1007.21 1006.84 1006.45
1018.09 1017.86 1017.28 1016.76 1016.40 1015.97 1015.66 1015.28 1014.86 1014.23 1013.47 1012.76 1011.95 1011.07 1010.37 1010.01 1010.13 1009.96 1009.01 1008.66 1008.62 1008.35 1008.20 1008.03 1007.89 1007.91 1008.13 1008.19 1008.12 1008.22 1008.55 1008.85 1009.02 1009.32 1009.54 1009.55 1009.64 1009.87 1010.04 1010.00 1009.87 1010.01 1010.04 1009.93 1009.81 1009.49 1009.03 1008.74 1008.39 1008.09 1007.82 1007.48 1007.24 1006.99
1018.02 1017.60 1017.34 1016.50 1015.83 1015.42 1014.97 1014.38 1013.93 1013.46 1012.60 1011.86 1011.24 1010.41 1009.62 1009.45 1009.43 1009.13 1008.69 1008.65 1008.47 1008.19 1008.02 1007.68 1007.55 1007.54 1007.47 1007.31 1007.44 1007.80 1008.19 1008.43 1008.56 1008.82 1009.26 1009.36 1009.44 1009.52 1009.65 1009.78 1009.76 1009.89 1009.95 1009.77 1009.59 1009.38 1009.05 1008.76 1008.44 1008.42 1008.40 1008.19 1007.84 1007.64
1017.28 1016.59 1016.41 1015.47 1014.93 1014.81 1014.34 1013.66 1013.06 1012.82 1012.37 1011.54 1010.73 1009.98 1009.50 1009.15 1009.04 1008.98 1008.77 1008.59 1008.38 1008.26 1008.19 1007.97 1007.67 1007.47 1007.29 1007.09 1007.03 1007.28 1007.64 1008.13 1008.39 1008.47 1008.88 1009.14 1009.01 1009.08 1009.39 1009.58 1009.55 1009.55 1009.82 1009.92 1009.86 1009.61 1009.21 1008.92 1008.79 1008.71 1008.66 1008.61 1008.61 1008.41
1016.44 1015.53 1015.23 1014.86 1014.68 1014.50 1013.91 1013.17 1012.79 1012.53 1011.90 1011.10 1010.30 1009.86 1009.32 1008.93 1009.08 1009.37 1008.97 1008.53 1008.46 1008.15 1008.05 1007.90 1007.66 1007.31 1006.85 1006.80 1006.99 1007.23 1007.50 1007.95 1008.14 1008.25 1008.47 1008.97 1009.12 1009.21 1009.42 1009.65 1009.82 1010.14 1010.02 1009.98 1009.89 1009.81 1009.57 1009.26 1009.18 1009.19 1009.33 1009.35 1009.32 1009.35
1015.71 1015.03 1014.71 1014.63 1014.37 1014.07 1013.55 1012.87 1012.10 1011.34 1010.81 1010.46 1010.28 1009.52 1009.21 1009.19 1009.61 1009.56 1009.25 1008.83 1008.64 1008.27 1007.93 1007.52 1007.11 1006.92 1006.67 1006.63 1006.77 1007.14 1007.55 1007.98 1008.32 1008.63 1008.99 1009.38 1009.56 1009.62 1009.73 1009.98 1010.35 1010.63 1010.52 1010.60 1010.18 1009.85 1009.75 1009.69 1009.74 1009.98 1010.05 1009.96 1010.03 1010.10
1015.37 1014.80 1014.63 1014.10 1013.90 1013.48 1012.73 1012.05 1011.06 1010.20 1009.82 1009.80 1009.44 1009.06 1009.03 1009.21 1009.25 1009.14 1008.70 1008.18 1008.07 1008.09 1007.60 1007.16 1006.91 1006.75 1006.68 1006.70 1006.81 1006.93 1007.21 1007.51 1007.77 1008.01 1008.25 1008.64 1009.11 1009.54 1009.74 1009.89 1010.10 1010.19 1010.25 1010.50 1010.70 1010.50 1010.33 1010.16 1010.16 1010.31 1010.40 1010.51 1010.61 1010.61
1014.51 1014.29 1014.03 1013.50 1012.91 1011.95 1011.04 1010.69 1009.99 1009.54 1009.36 1009.16 1009.05 1009.00 1008.95 1008.79 1008.64 1008.36 1008.29 1008.24 1008.03 1007.79 1007.42 1006.99 1006.78 1006.62 1006.35 1006.18 1006.39 1006.77 1007.04 1007.11 1007.08 1007.02 1007.32 1007.70 1008.03 1008.77 1009.34 1009.70 1009.98 1010.13 1010.30 1010.34 1010.41 1010.75 1010.82 1010.70 1010.71 1010.63 1010.75 1010.96 1011.01 1011.04
1013.88 1013.83 1013.41 1012.65 1011.59 1010.48 1009.93 1009.62 1009.47 1009.37 1009.09 1008.66 1008.51 1008.59 1008.32 1008.39 1008.08 1007.68 1007.75 1007.67 1007.40 1007.21 1006.80 1006.42 1006.33 1006.27 1006.07 1005.92 1005.87 1006.01 1006.16 1006.56 1006.77 1007.05 1007.48 1007.50 1007.99 1008.59 1009.09 1009.58 1009.93 1010.07 1010.26 1010.32 1010.35 1010.45 1010.69 1010.87 1010.98 1010.88 1010.94 1011.03 1011.31 1011.41
1012.82 1012.55 1012.18 1011.44 1010.34 1009.51 1009.24 1008.84 1008.47 1008.24 1007.98 1007.83 1007.70 1007.79 1007.83 1007.95 1007.88 1007.74 1007.63 1007.38 1007.02 1006.93 1006.77 1006.56 1006.38 1006.29 1006.34 1006.21 1006.09 1006.01 1006.05 1006.06 1006.19 1006.53 1007.15 1007.42 1007.89 1008.62 1009.12 1009.60 1009.99 1010.16 1010.38 1010.44 1010.50 1010.58 1010.64 1010.65 1010.81 1010.98 1011.13 1011.22 1011.32 1011.38
1011.54 1011.24 1011.05 1010.74 1009.87 1009.01 1008.42 1008.34 1007.96 1007.69 1007.59 1007.48 1007.45 1007.49 1007.52 1007.50 1007.70 1007.91 1007.93 1007.85 1007.61 1007.37 1007.19 1007.02 1006.74 1006.50 1006.36 1006.24 1006.10 1005.94 1006.07 1006.02 1006.23 1006.52 1006.96 1007.34 1007.84 1008.53 1009.02 1009.47 1009.82 1010.10 1010.42 1010.54 1010.71 1010.90 1011.00 1011.07 1011.13 1011.22 1011.32 1011.44 1011.58 1011.75
Thickness
5534 5534 5535 5538 5539 5542 5548 5556 5563 5571 5579 5585 5593 5600 5606 5612 5619 5625 5636 5639 5649 5658 5675 5681 5690 5696 5703 5708 5714 5718 5726 5734 5733 5727 5728 5723 5729 5728 5727 5731 5729 5732 5725 5724 5713 5712 5712 5739 5738 5733 5743 5742 5742 5736
5528 5527 5529 5531 5532 5535 5541 5550 5558 5566 5575 5582 5589 5596 5602 5608 5614 5620 5631 5632 5637 5649 5667 5673 5686 5696 5700 5707 5707 5706 5713 5717 5723 5720 5714 5714 5714 5712 5719 5718 5720 5717 5729 5727 5726 5730 5728 5729 5729 5734 5737 5735 5730 5729
5523 5524 5525 5526 5529 5533 5538 5545 5553 5562 5571 5579 5586 5592 5599 5604 5609 5613 5619 5625 5634 5644 5662 5671 5686 5692 5696 5700 5708 5701 5705 5710 5712 5715 5714 5713 5711 5714 5711 5716 5717 5716 5715 5719 5713 5720 5719 5721 5722 5725 5725 5724 5723 5721
5518 5518 5520 5523 5527 5530 5533 5538 5548 5557 5566 5574 5582 5589 5595 5600 5605 5610 5615 5619 5625 5634 5645 5671 5681 5686 5692 5696 5700 5703 5704 5702 5705 5705 5706 5708 5711 5705 5711 5714 5715 5716 5708 5707 5707 5707 5708 5713 5714 5717 5716 5715 5712 5711
5513 5514 5516 5520 5523 5526 5528 5534 5542 5552 5560 5568 5577 5584 5591 5597 5602 5608 5612 5616 5619 5627 5640 5658 5670 5679 5686 5689 5691 5694 5696 5696 5696 5696 5698 5701 5698 5699 5693 5699 5706 5711 5711 5706 5708 5718 5716 5716 5719 5713 5707 5706 5704 5701
5509 5512 5513 5516 5520 5524 5529 5532 5539 5547 5555 5563 5572 5580 5587 5593 5600 5608 5617 5613 5615 5619 5628 5644 5659 5667 5676 5681 5682 5682 5683 5682 5687 5692 5692 5690 5693 5697 5694 5695 5710 5711 5709 5712 5709 5711 5711 5708 5708 5708 5701 5698 5696 5693
5506 5509 5512 5515 5519 5523 5527 5531 5535 5544 5552 5560 5568 5575 5583 5589 5594 5606 5613 5610 5610 5614 5624 5636 5650 5660 5664 5670 5670 5671 5672 5673 5679 5681 5683 5688 5687 5687 5686 5690 5706 5705 5703 5702 5701 5699 5694 5697 5697 5696 5692 5690 5686 5684
5504 5506 5509 5513 5517 5522 5527 5532 5537 5542 5551 5557 5566 5573 5580 5586 5591 5601 5608 5609 5606 5611 5616 5625 5642 5651 5660 5662 5662 5659 5666 5667 5667 5672 5670 5677 5673 5676 5679 5695 5696 5695 5696 5694 5692 5693 5692 5688 5686 5684 5682 5678 5674 5673
5501 5504 5507 5511 5515 5520 5526 5531 5536 5542 5548 5556 5564 5572 5578 5584 5594 5599 5599 5601 5603 5608 5616 5620 5631 5644 5653 5652 5655 5656 5659 5659 5657 5666 5666 5668 5666 5671 5686 5690 5691 5688 5688 5690 5685 5682 5680 5677 5675 5672 5671 5668 5666 5667
5497 5502 5505 5508 5513 5518 5524 5530 5535 5541 5547 5552 5561 5573 5581 5584 5586 5590 5594 5600 5604 5607 5609 5620 5623 5638 5646 5647 5649 5653 5651 5655 5654 5658 5656 5660 5672 5678 5678 5681 5682 5682 5681 5680 5674 5670 5671 5669 5669 5666 5663 5661 5658 5658
5495 5499 5504 5508 5512 5518 5524 5529 5534 5539 5546 5550 5561 5570 5571 5576 5583 5588 5593 5598 5601 5608 5613 5622 5625 5636 5642 5646 5650 5647 5650 5650 5650 5652 5653 5656 5662 5672 5673 5674 5674 5674 5673 5673 5671 5668 5666 5663 5659 5658 5657 5655 5653 5652
5494 5498 5503 5507 5511 5518 5526 5530 5533 5536 5539 5541 5547 5554 5563 5575 5580 5585 5592 5594 5599 5613 5618 5623 5629 5631 5639 5640 5647 5642 5647 5643 5647 5648 5649 5653 5664 5664 5666 5667 5666 5665 5664 5663 5661 5658 5656 5654 5653 5651 5650 5649 5648 5648
5492 5497 5501 5505 5509 5516 5523 5529 5532 5534 5537 5541 5548 5560 5568 5572 5570 5581 5592 5600 5604 5615 5622 5624 5629 5632 5630 5636 5639 5642 5642 5641 5644 5644 5649 5656 5659 5660 5660 5661 5660 5658 5656 5654 5652 5651 5649 5647 5646 5644 5644 5644 5644 5642
5491 5495 5500 5504 5507 5513 5520 5525 5528 5531 5536 5547 5555 5548 5563 5571 5578 5590 5598 5607 5615 5618 5621 5623 5626 5630 5632 5634 5636 5636 5632 5639 5636 5637 5643 5657 5657 5659 5656 5655 5653 5652 5649 5647 5645 5643 5641 5640 5640 5639 5638 5638 5637 5636
5491 5496 5500 5502 5506 5512 5517 5523 5526 5530 5536 5547 5551 5556 5567 5578 5582 5590 5595 5600 5609 5614 5617 5623 5626 5627 5628 5630 5631 5634 5630 5632 5637 5640 5650 5656 5653 5653 5650 5647 5646 5645 5643 5641 5639 5636 5634 5633 5633 5634 5633 5633 5629 5627
5491 5496 5497 5500 5504 5511 5517 5522 5525 5529 5535 5542 5547 5557 5568 5572 5583 5587 5589 5594 5601 5608 5614 5621 5622 5621 5615 5621 5629 5633 5633 5631 5640 5644 5650 5647 5646 5646 5645 5642 5641 5638 5636 5634 5632 5630 5628 5628 5628 5628 5627 5626 5624 5624
5490 5492 5495 5499 5504 5510 5516 5520 5525 5531 5536 5543 5551 5555 5559 5566 5573 5580 5582 5591 5596 5600 5609 5615 5618 5616 5618 5619 5622 5629 5631 5639 5643 5643 5643 5642 5642 5641 5639 5637 5635 5633 5630 5628 5626 5624 5623 5623 5622 5622 5619 5617 5617 5617
5483 5487 5492 5497 5501 5507 5513 5518 5525 5534 5538 5546 5546 5556 5559 5566 5572 5579 5584 5587 5591 5596 5601 5607 5610 5610 5612 5611 5622 5630 5632 5635 5634 5635 5637 5637 5636 5635 5634 5633 5631 5627 5624 5622 5620 5620 5619 5619 5619 5618 5614 5611 5609 5613
5483 5487 5491 5496 5499 5502 5510 5518 5520 5529 5540 5542 5548 5550 5556 5565 5571 5576 5580 5586 5588 5590 5594 5600 5604 5606 5611 5620 5625 5629 5629 5630 5634 5633 5633 5631 5631 5631 5629 5626 5623 5621 5619 5617 5616 5618 5617 5615 5613 5611 5608 5605 5604 5607
5482 5487 5490 5495 5497 5502 5510 5516 5517 5524 5535 5541 5543 5551 5557 5565 5571 5575 5579 5584 5587 5590 5592 5597 5606 5614 5617 5622 5623 5625 5624 5627 5628 5627 5626 5628 5630 5626 5624 5621 5620 5616 5615 5614 5614 5608 5612 5611 5612 5610 5605 5603 5601 5602
5481 5485 5488 5490 5494 5498 5502 5512 5521 5527 5532 5535 5544 5547 5560 5563 5568 5573 5577 5581 5582 5592 5598 5605 5609 5617 5618 5616 5619 5621 5622 5623 5619 5622 5628 5628 5624 5623 5621 5617 5612 5612 5612 5610 5609 5608 5604 5605 5604 5603 5601 5601 5602 5603
5477 5481 5485 5490 5496 5500 5504 5511 5515 5519 5523 5537 5542 5551 5559 5566 5572 5574 5576 5579 5586 5597 5599 5602 5609 5612 5613 5616 5617 5619 5622 5622 5620 5619 5615 5617 5621 5620 5617 5612 5608 5607 5606 5603 5601 5598 5597 5598 5598 5596 5597 5600 5601 5605
5474 5477 5483 5490 5497 5498 5507 5510 5514 5525 5530 5542 5547 5554 5560 5568 5571 5571 5579 5589 5594 5598 5604 5608 5614 5616 5618 5620 5619 5619 5619 5619 5619 5619 5613 5617 5615 5611 5609 5606 5603 5601 5601 5600 5595 5593 5595 5594 5594 5595 5596 5596 5598 5601
5473 5478 5486 5494 5498 5500 5510 5513 5517 5527 5534 5540 5546 5556 5565 5567 5568 5573 5586 5589 5593 5597 5601 5605 5609 5612 5612 5615 5618 5620 5620 5619 5619 5616 5614 5614 5612 5609 5606 5605 5604 5600 5595 5593 5590 5591 5593 5592 5591 5592 5591 5591 5594 5595
5475 5481 5480 5484 5500 5508 5514 5523 5528 5531 5541 5547 5551 5558 5568 5570 5571 5578 5584 5585 5590 5596 5600 5605 5609 5612 5616 5621 5622 5621 5620 5618 5618 5616 5613 5612 5610 5608 5606 5603 5602 5598 5593 5593 5592 5591 5591 5591 5592 5589 5586 5587 5588 5589
5482 5491 5488 5507 5514 5514 5518 5526 5531 5532 5535 5544 5551 5559 5566 5572 5575 5576 5581 5586 5590 5593 5596 5602 5608 5610 5614 5621 5623 5622 5621 5620 5618 5617 5613 5611 5612 5609 5603 5600 5600 5599 5594 5590 5589 5589 5591 5591 5589 5588 5587 5584 5579 5583
5488 5502 5504 5506 5510 5510 5519 5527 5529 5529 5534 5544 5556 5559 5567 5574 5574 5574 5578 5587 5590 5596 5599 5603 5607 5613 5620 5622 5622 5623 5623 5620 5619 5618 5616 5611 5609 5607 5604 5600 5596 5593 5592 5590 5589 5587 5588 5590 5589 5585 5582 5580 5579 5579
5499 5507 5508 5510 5511 5513 5520 5526 5533 5540 5545 5552 5553 5561 5565 5568 5566 5571 5578 5586 5589 5595 5600 5607 5613 5617 5621 5624 5625 5623 5621 5618 5615 5612 5609 5605 5604 5602 5601 5597 5593 5584 5587 5584 5586 5588 5588 5588 5586 5583 5580 5581 5578 5577
5496 5503 5505 5510 5511 5514 5524 5532 5542 5552 5557 5555 5561 5568 5570 5570 5573 5576 5583 5591 5596 5597 5603 5610 5615 5619 5621 5623 5624 5625 5623 5620 5617 5612 5610 5607 5603 5600 5599 5597 5594 5592 5590 5586 5577 5580 5582 5583 5584 5580 5579 5578 5577 5576
5506 5507 5508 5513 5519 5530 5540 5543 5551 5559 5561 5564 5567 5569 5570 5575 5579 5582 5587 5591 5595 5600 5606 5611 5615 5619 5623 5627 5626 5623 5623 5624 5625 5624 5619 5614 5612 5608 5601 5598 5594 5592 5590 5588 5586 5582 5579 5580 5579 5579 5577 5574 5573 5574
5513 5509 5517 5526 5537 5547 5552 5556 5557 5559 5562 5568 5573 5572 5578 5578 5584 5591 5595 5597 5603 5606 5613 5619 5621 5623 5627 5630 5630 5628 5628 5627 5626 5625 5624 5622 5616 5609 5605 5600 5596 5594 5592 5590 5588 5587 5584 5581 5578 5579 5577 5576 5573 5572
5526 5527 5532 5541 5552 5559 5560 5563 5568 5570 5574 5577 5580 5582 5583 5584 5587 5592 5596 5601 5606 5611 5611 5616 5620 5621 5623 5627 5629 5631 5626 5633 5631 5629 5625 5623 5618 5612 5607 5602 5598 5596 5593 5591 5589 5589 5588 5587 5585 5583 5581 5580 5579 5577
5541 5543 5544 5548 5556 5563 5570 5568 5572 5578 5580 5582 5585 5585 5588 5591 5589 5590 5593 5596 5602 5606 5609 5612 5616 5620 5622 5624 5627 5630 5629 5632 5632 5629 5626 5623 5619 5614 5610 5606 5602 5599 5595 5593 5591 5589 5587 5586 5585 5583 5582 5580 5579 5577